Weather History for Valdez Airport, AK

Change the Weather History Date:

Wednesday, November 21, 2012

  Actual Average Record
Temperature  
Mean Temperature 8 °F -  
Max Temperature 14 °F 32 °F 50 °F (1977)
Min Temperature 3 °F 22 °F 3 °F (2011)
Degree Days  
Heating Degree Days 56    
Moisture  
Dew Point -3 °F    
Average Humidity 61    
Maximum Humidity 85    
Minimum Humidity 45    
Precipitation  
Precipitation 0.00 in - - ()
Sea Level Pressure  
Sea Level Pressure 29.73 in    
Wind  
Wind Speed 3 mph (East)    
Max Wind Speed 8 mph    
Max Gust Speed -    
Visibility 11 miles    
Events      
Averages and records for this station are not official NWS values.
T = Trace of Precipitation, MM = Missing Value Source: NWS Daily Summary

Daily Weather History Graph

Daily Weather History Graph

Search for Another Location

Airport:

Trip Planner

Search our weather history database for the weather conditions in past years. The results will help you decide how hot, cold, wet, or windy it might be!

Date:

Astronomy

Nov. 21, 2012 Rise Set
Actual Time 9:07 AM AKST 3:53 PM AKST
Civil Twilight 8:13 AM AKST 4:47 PM AKST
Nautical Twilight 7:18 AM AKST 5:43 PM AKST
Astronomical Twilight 6:26 AM AKST 6:34 PM AKST
Moon 1:49 PM AKST (11/21) 12:52 AM AKST (11/21)
Length of Visible Light 8h 33m
Length of Day
6h 45m
Waxing Gibbous, 63% of the Moon is Illuminated
Nov 21
Waxing Gibbous
Nov 28
Full
Dec 6
Last Quarter
Dec 12
New
Dec 19
First Quarter

Hourly Weather History & Observations

Time (AKST) Temp. Windchill Dew Point Humidity Pressure Visibility Wind Dir Wind Speed Gust Speed Precip Events Conditions
12:16 AM 8.6 °F 2.0 °F -4.0 °F 57% 29.65 in 10.0 mi SSE 3.5 mph - N/A   Clear
12:36 AM 5.0 °F - -4.0 °F 66% 29.65 in 10.0 mi Calm Calm - N/A   Clear
12:56 AM 8.6 °F - -2.2 °F 62% 29.64 in 10.0 mi Calm Calm - N/A   Clear
1:16 AM 6.8 °F -3.5 °F -5.8 °F 56% 29.64 in 10.0 mi NE 5.8 mph - N/A   Clear
1:36 AM 10.4 °F 4.0 °F -2.2 °F 57% 29.64 in 10.0 mi East 3.5 mph - N/A   Clear
1:56 AM 8.6 °F -2.6 °F -2.2 °F 62% 29.64 in 10.0 mi ENE 6.9 mph - N/A   Clear
2:16 AM 5.0 °F -4.1 °F -2.2 °F 72% 29.64 in 10.0 mi East 4.6 mph - N/A   Clear
2:36 AM 8.6 °F - -0.4 °F 67% 29.63 in 10.0 mi Calm Calm - N/A   Clear
2:56 AM 5.0 °F -4.1 °F -4.0 °F 66% 29.63 in 10.0 mi East 4.6 mph - N/A   Clear
3:16 AM 6.8 °F - -2.2 °F 67% 29.63 in 10.0 mi Calm Calm - N/A   Clear
3:36 AM 8.6 °F 2.0 °F -2.2 °F 62% 29.63 in 10.0 mi ENE 3.5 mph - N/A   Clear
3:56 AM 6.8 °F -0.1 °F -5.8 °F 56% 29.63 in 8.0 mi ENE 3.5 mph - N/A   Clear
4:16 AM 5.0 °F - -5.8 °F 61% 29.63 in 10.0 mi Calm Calm - N/A   Clear
4:36 AM 3.2 °F -6.2 °F -0.4 °F 85% 29.63 in 10.0 mi ENE 4.6 mph - N/A   Clear
4:56 AM 5.0 °F -2.1 °F -0.4 °F 78% 29.63 in 8.0 mi East 3.5 mph - N/A   Clear
5:16 AM 3.2 °F - -5.8 °F 66% 29.63 in 8.0 mi Calm Calm - N/A   Clear
5:36 AM 3.2 °F -9.1 °F -4.0 °F 72% 29.63 in 9.0 mi ESE 6.9 mph - N/A   Clear
5:56 AM 6.8 °F - -5.8 °F 56% 29.63 in 10.0 mi Calm Calm - N/A   Clear
6:36 AM 10.4 °F -1.5 °F -2.2 °F 57% 29.63 in 10.0 mi ESE 8.1 mph - N/A   Clear
6:56 AM 8.6 °F -2.6 °F -4.0 °F 57% 29.63 in 10.0 mi East 6.9 mph - N/A   Clear
7:16 AM 8.6 °F -1.3 °F -4.0 °F 57% 29.63 in 10.0 mi NNE 5.8 mph - N/A   Clear
7:36 AM 10.4 °F 0.8 °F -4.0 °F 52% 29.64 in 10.0 mi East 5.8 mph - N/A   Clear
7:56 AM 6.8 °F - -5.8 °F 56% 29.64 in 10.0 mi Calm Calm - N/A   Clear
8:16 AM 6.8 °F - -4.0 °F 61% 29.64 in 10.0 mi Calm Calm - N/A   Clear
8:36 AM 6.8 °F - -2.2 °F 67% 29.65 in 10.0 mi Calm Calm - N/A   Clear
8:56 AM 6.8 °F - -2.2 °F 67% 29.65 in 10.0 mi Calm Calm - N/A   Partly Cloudy
10:47 AM 8.6 °F -1.3 °F -2.2 °F 62% 29.69 in 20.0 mi ENE 5.8 mph - N/A   Partly Cloudy
11:47 AM 10.4 °F 0.8 °F -4.0 °F 52% 29.71 in 20.0 mi ENE 5.8 mph - N/A   Partly Cloudy
12:47 PM 12.2 °F - -2.2 °F 53% 29.71 in 20.0 mi Calm Calm - N/A   Partly Cloudy
1:36 PM 12.2 °F - -4.0 °F 48% 29.72 in 10.0 mi Calm Calm - N/A   Partly Cloudy
1:47 PM 12.2 °F - -0.4 °F 57% 29.73 in 20.0 mi Calm Calm - N/A   Clear
1:56 PM 14.0 °F 5.1 °F -2.2 °F 49% 29.73 in 10.0 mi SSE 5.8 mph - N/A   Clear
2:16 PM 12.2 °F 4.3 °F -0.4 °F 57% 29.74 in 10.0 mi ESE 4.6 mph - N/A   Clear
2:36 PM 12.2 °F - -0.4 °F 57% 29.74 in 10.0 mi Calm Calm - N/A   Clear
2:56 PM 12.2 °F - -4.0 °F 48% 29.75 in 10.0 mi Calm Calm - N/A   Clear
3:16 PM 12.2 °F 6.1 °F -5.8 °F 45% 29.75 in 10.0 mi West 3.5 mph - N/A   Clear
3:36 PM 10.4 °F 4.0 °F -5.8 °F 48% 29.76 in 10.0 mi WNW 3.5 mph - N/A   Clear
3:56 PM 10.4 °F - -5.8 °F 48% 29.77 in 10.0 mi Calm Calm - N/A   Clear
4:16 PM 10.4 °F - -5.8 °F 48% 29.78 in 10.0 mi Calm Calm - N/A   Clear
4:36 PM 8.6 °F - -5.8 °F 52% 29.78 in 10.0 mi Calm Calm - N/A   Clear
5:16 PM 6.8 °F - -4.0 °F 61% 29.79 in 10.0 mi Calm Calm - N/A   Clear
5:56 PM 6.8 °F -0.1 °F -2.2 °F 67% 29.80 in 10.0 mi ENE 3.5 mph - N/A   Clear
6:16 PM 5.0 °F -2.1 °F -7.6 °F 56% 29.81 in 10.0 mi North 3.5 mph - N/A   Clear
6:36 PM 5.0 °F -2.1 °F -5.8 °F 61% 29.82 in 10.0 mi East 3.5 mph - N/A   Clear
6:56 PM 3.2 °F -6.2 °F -5.8 °F 66% 29.83 in 10.0 mi East 4.6 mph - N/A   Clear
7:16 PM 5.0 °F -4.1 °F -0.4 °F 78% 29.83 in 10.0 mi East 4.6 mph - N/A   Clear
7:36 PM 8.6 °F 0.1 °F -0.4 °F 67% 29.84 in 10.0 mi ENE 4.6 mph - N/A   Clear
7:56 PM 3.2 °F - -5.8 °F 66% 29.85 in 10.0 mi Calm Calm - N/A   Partly Cloudy
8:16 PM 8.6 °F - -2.2 °F 62% 29.85 in 10.0 mi Calm Calm - N/A   Partly Cloudy
8:56 PM 6.8 °F -0.1 °F -2.2 °F 67% 29.85 in 10.0 mi South 3.5 mph - N/A   Partly Cloudy
9:16 PM 3.2 °F - -2.2 °F 78% 29.86 in 10.0 mi Calm Calm - N/A   Partly Cloudy
9:36 PM 6.8 °F - -2.2 °F 67% 29.86 in 10.0 mi Calm Calm - N/A   Partly Cloudy
9:56 PM 6.8 °F -0.1 °F -5.8 °F 56% 29.87 in 10.0 mi ENE 3.5 mph - N/A   Mostly Cloudy
10:16 PM 6.8 °F -3.5 °F -4.0 °F 61% 29.87 in - SSE 5.8 mph - N/A   Overcast
10:36 PM 6.8 °F -0.1 °F -2.2 °F 67% 29.88 in 10.0 mi East 3.5 mph - N/A   Mostly Cloudy
10:56 PM 8.6 °F 2.0 °F 3.2 °F 79% 29.88 in 10.0 mi SSE 3.5 mph - N/A   Partly Cloudy
11:36 PM 8.6 °F - -2.2 °F 62% 29.89 in 10.0 mi Calm Calm - N/A   Scattered Clouds
11:56 PM 6.8 °F -2.0 °F -2.2 °F 67% 29.89 in 10.0 mi ENE 4.6 mph - N/A   Mostly Cloudy